STARLINK-1197 (45199 NORAD) Tracking and Keplerian Element Data

This shows tracking and keplerian element data for the satellite.

Feedback or suggestion? Click here.




ElementValue
Catalog45199
NameSTARLINK-1197
Epoch Orbit2171
Epoch Day187.50002315
Epoch Year2020
RAAN333.5248
Inclination52.9995
Eccentricity0.0001304
Argument of Perigee97.8341
Mean Anonmoly324.8588
Mean Motion15.05597095
Decay Rate-0.00022055
L11 45199U 20012X 20187.50002315 -.00022055 00000-0 -14985-2 0 9992
L22 45199 52.9995 333.5248 0001304 97.8341 324.8588 15.05597095 21712

Live tracking and technical data element details for STARLINK-1197 (NORAD 45199). STARLINK-1197 can be tracked NOW for your location showing map with azimuth and elevation plus other details from your city location.

Track the satellite on the map from your city or location and see movement details for azimuth, elevation, latitude, longitude, range, height, and movement on the map or in text.







IsCatalogInMostPopularTable: catalog: 45199, numindb: 22
Update: records affected: 1



GetName: 45199 STARLINK-1197

Hit Count: updated at: Mon, 06 Jul 2020 05:57:07 GMT